| time (UTC) | temp C | wind direction | speed KPH | gust KPH | rain 1hr cm | rain 24hr cm | rain mn cm | humidity % | barometer mb |
| 20260906115624 | 24 | 9 | 3.2 | 4.8 | 0.00 | 0.36 | 0.00 | 86 | 1013.0 |
| 20260906115125 | 24 | 306 | 3.2 | 4.8 | 0.00 | 0.36 | 0.00 | 86 | 1013.1 |
| 20260906114650 | 24 | 50 | 1.6 | 3.2 | 0.00 | 0.36 | 0.00 | 86 | 1013.1 |
| 20260906114152 | 24 | 50 | 0.0 | 3.2 | 0.00 | 0.36 | 0.00 | 86 | 1013.1 |
| 20260906113618 | 24 | 50 | 0.0 | 3.2 | 0.00 | 0.36 | 0.00 | 86 | 1013.1 |
| 20260906113122 | 24 | 50 | 0.0 | 0.0 | 0.00 | 0.36 | 0.00 | 87 | 1013.1 |
| 20260906112625 | 24 | 50 | 0.0 | 0.0 | 0.00 | 0.36 | 0.00 | 86 | 1013.1 |
| 20260906112125 | 24 | 50 | 0.0 | 3.2 | 0.00 | 0.36 | 0.00 | 86 | 1013.2 |
| 20260906111645 | 24 | 50 | 1.6 | 3.2 | 0.00 | 0.36 | 0.00 | 86 | 1013.1 |
| 20260906111128 | 24 | 50 | 0.0 | 3.2 | 0.00 | 0.36 | 0.00 | 86 | 1013.0 |
| 20260906110630 | 24 | 50 | 0.0 | 8.0 | 0.00 | 0.36 | 0.00 | 86 | 1013.1 |
| 20260906110129 | 24 | 50 | 4.8 | 8.0 | 0.00 | 0.36 | 0.00 | 86 | 1013.1 |
| 20260906105652 | 24 | 18 | 4.8 | 12.9 | 0.00 | 0.36 | 0.00 | 86 | 1013.2 |
| 20260906105126 | 24 | 17 | 6.4 | 12.9 | 0.00 | 0.36 | 0.00 | 86 | 1013.2 |
| 20260906104628 | 24 | 26 | 4.8 | 9.7 | 0.00 | 0.36 | 0.00 | 86 | 1013.3 |
| 20260906104127 | 24 | 56 | 4.8 | 20.9 | 0.00 | 0.36 | 0.00 | 86 | 1013.3 |
| 20260906103629 | 24 | 40 | 3.2 | 20.9 | 0.00 | 0.36 | 0.00 | 87 | 1013.3 |
| 20260906103128 | 24 | 36 | 8.0 | 17.7 | 0.00 | 0.36 | 0.00 | 87 | 1013.2 |
| 20260906102631 | 24 | 5 | 11.3 | 20.9 | 0.00 | 0.36 | 0.00 | 88 | 1013.4 |
| 20260906102112 | 25 | 355 | 12.9 | 22.5 | 0.00 | 0.36 | 0.00 | 90 | 1013.3 |
| 20260906101612 | 25 | 360 | 9.7 | 22.5 | 0.00 | 0.36 | 0.00 | 91 | 1013.3 |
| 20260906101148 | 25 | 347 | 9.7 | 20.9 | 0.00 | 0.36 | 0.00 | 91 | 1013.2 |
| 20260906100627 | 25 | 306 | 6.4 | 9.7 | 0.00 | 0.36 | 0.00 | 90 | 1013.0 |
| 20260906100128 | 25 | 23 | 6.4 | 14.5 | 0.00 | 0.36 | 0.00 | 90 | 1012.9 |
| 20260906095627 | 25 | 329 | 6.4 | 14.5 | 0.00 | 0.36 | 0.00 | 90 | 1012.8 |
| 20260906095127 | 25 | 303 | 6.4 | 8.0 | 0.00 | 0.36 | 0.00 | 90 | 1012.8 |
| 20260906094652 | 25 | 296 | 3.2 | 6.4 | 0.00 | 0.36 | 0.00 | 90 | 1012.5 |
| 20260906094119 | 25 | 300 | 3.2 | 8.0 | 0.00 | 0.36 | 0.00 | 90 | 1012.4 |
| 20260906093620 | 25 | 283 | 1.6 | 8.0 | 0.00 | 0.36 | 0.00 | 90 | 1012.5 |
| 20260906093143 | 25 | 313 | 4.8 | 12.9 | 0.00 | 0.36 | 0.00 | 90 | 1012.5 |
| 20260906092619 | 25 | 297 | 6.4 | 12.9 | 0.00 | 0.36 | 0.00 | 90 | 1012.4 |
| 20260906092121 | 25 | 259 | 4.8 | 12.9 | 0.00 | 0.36 | 0.00 | 90 | 1012.4 |
| 20260906091623 | 25 | 285 | 4.8 | 11.3 | 0.00 | 0.36 | 0.00 | 90 | 1012.3 |
| 20260906091124 | 25 | 287 | 3.2 | 9.7 | 0.00 | 0.36 | 0.00 | 91 | 1012.1 |
| 20260906090644 | 25 | 319 | 3.2 | 8.0 | 0.00 | 0.36 | 0.00 | 91 | 1012.2 |
| 20260906090122 | 25 | 299 | 3.2 | 14.5 | 0.00 | 0.36 | 0.00 | 91 | 1012.3 |
| 20260906085622 | 25 | 308 | 6.4 | 20.9 | 0.00 | 0.36 | 0.00 | 91 | 1012.2 |
| 20260906085127 | 25 | 313 | 8.0 | 20.9 | 0.00 | 0.36 | 0.00 | 92 | 1012.1 |
| 20260906084627 | 25 | 323 | 11.3 | 19.3 | 0.00 | 0.36 | 0.00 | 92 | 1012.2 |
| 20260906084130 | 25 | 302 | 11.3 | 19.3 | 0.00 | 0.36 | 0.00 | 92 | 1012.4 |
| 20260906083151 | 25 | 319 | 11.3 | 19.3 | 0.00 | 0.36 | 0.00 | 93 | 1012.4 |
| 20260906082626 | 25 | 307 | 9.7 | 20.9 | 0.00 | 0.36 | 0.00 | 93 | 1012.5 |
| 20260906082114 | 25 | 321 | 12.9 | 20.9 | 0.00 | 0.36 | 0.00 | 93 | 1012.6 |
| 20260906081617 | 25 | 318 | 9.7 | 14.5 | 0.00 | 0.36 | 0.00 | 93 | 1012.7 |
| 20260906081117 | 25 | 327 | 11.3 | 16.1 | 0.00 | 0.36 | 0.00 | 93 | 1012.8 |
| 20260906080615 | 25 | 319 | 9.7 | 17.7 | 0.00 | 0.36 | 0.00 | 93 | 1012.8 |
| 20260906080118 | 25 | 298 | 12.9 | 20.9 | 0.00 | 0.36 | 0.00 | 93 | 1012.7 |
| 20260906075617 | 25 | 329 | 11.3 | 20.9 | 0.00 | 0.36 | 0.00 | 93 | 1012.5 |
| 20260906075119 | 25 | 309 | 12.9 | 19.3 | 0.00 | 0.36 | 0.00 | 93 | 1012.3 |
| 20260906074640 | 25 | 304 | 9.7 | 16.1 | 0.00 | 0.36 | 0.00 | 93 | 1012.1 |
| 20260906074122 | 25 | 275 | 8.0 | 14.5 | 0.00 | 0.36 | 0.00 | 93 | 1012.3 |
| 20260906073624 | 25 | 288 | 8.0 | 16.1 | 0.00 | 0.36 | 0.00 | 93 | 1012.2 |
| 20260906073124 | 25 | 294 | 8.0 | 16.1 | 0.00 | 0.36 | 0.00 | 93 | 1012.3 |
| 20260906072642 | 25 | 303 | 6.4 | 14.5 | 0.00 | 0.36 | 0.00 | 93 | 1012.4 |
| 20260906072126 | 25 | 291 | 6.4 | 17.7 | 0.00 | 0.36 | 0.00 | 93 | 1012.4 |
| 20260906071624 | 25 | 283 | 4.8 | 17.7 | 0.00 | 0.36 | 0.00 | 93 | 1012.3 |
| 20260906071126 | 24 | 311 | 8.0 | 16.1 | 0.00 | 0.36 | 0.00 | 92 | 1012.4 |
| 20260906070628 | 24 | 300 | 6.4 | 14.5 | 0.00 | 0.36 | 0.00 | 92 | 1012.2 |
| 20260906070151 | 24 | 292 | 6.4 | 14.5 | 0.00 | 0.36 | 0.00 | 92 | 1012.2 |
| 20260906065631 | 24 | 315 | 9.7 | 16.1 | 0.00 | 0.36 | 0.00 | 92 | 1012.3 |
| 20260906065116 | 24 | 321 | 9.7 | 16.1 | 0.00 | 0.36 | 0.00 | 92 | 1012.4 |
| 20260906064617 | 24 | 308 | 8.0 | 17.7 | 0.00 | 0.36 | 0.00 | 91 | 1012.5 |
| 20260906064118 | 24 | 321 | 9.7 | 17.7 | 0.00 | 0.36 | 0.00 | 91 | 1012.6 |
| 20260906063642 | 24 | 316 | 6.4 | 12.9 | 0.00 | 0.36 | 0.00 | 90 | 1012.7 |
| 20260906063121 | 24 | 284 | 6.4 | 12.9 | 0.00 | 0.36 | 0.00 | 90 | 1012.8 |
| 20260906062618 | 25 | 294 | 6.4 | 12.9 | 0.00 | 0.36 | 0.00 | 90 | 1012.8 |
| 20260906062120 | 25 | 306 | 6.4 | 9.7 | 0.00 | 0.36 | 0.00 | 89 | 1012.8 |
| 20260906061621 | 25 | 315 | 6.4 | 8.0 | 0.00 | 0.36 | 0.00 | 89 | 1012.9 |
| 20260906061147 | 25 | 301 | 3.2 | 6.4 | 0.00 | 0.36 | 0.00 | 89 | 1013.1 |
| 20260906060628 | 25 | 295 | 4.8 | 4.8 | 0.00 | 0.36 | 0.00 | 88 | 1013.0 |
| 20260906060128 | 25 | 277 | 1.6 | 4.8 | 0.00 | 0.36 | 0.00 | 88 | 1013.1 |
| 20260906055630 | 25 | 335 | 3.2 | 4.8 | 0.00 | 0.36 | 0.00 | 87 | 1013.1 |
| 20260906055130 | 25 | 335 | 3.2 | 4.8 | 0.00 | 0.36 | 0.00 | 87 | 1013.1 |
| 20260906054617 | 25 | 335 | 3.2 | 4.8 | 0.00 | 0.36 | 0.00 | 87 | 1013.0 |
| 20260906054119 | 25 | 335 | 3.2 | 4.8 | 0.00 | 0.36 | 0.00 | 87 | 1013.1 |
| 20260906053644 | 25 | 335 | 1.6 | 4.8 | 0.00 | 0.36 | 0.00 | 87 | 1013.2 |
| 20260906053141 | 25 | 335 | 3.2 | 4.8 | 0.00 | 0.36 | 0.00 | 87 | 1013.2 |
| 20260906052624 | 25 | 335 | 3.2 | 4.8 | 0.00 | 0.36 | 0.00 | 87 | 1013.3 |
| 20260906052126 | 25 | 335 | 3.2 | 4.8 | 0.00 | 0.36 | 0.00 | 86 | 1013.4 |
| 20260906051626 | 25 | 335 | 3.2 | 4.8 | 0.00 | 0.36 | 0.00 | 86 | 1013.3 |
| 20260906051128 | 25 | 335 | 3.2 | 4.8 | 0.00 | 0.36 | 0.00 | 86 | 1013.3 |
| 20260906050629 | 25 | 327 | 1.6 | 4.8 | 0.00 | 0.36 | 0.00 | 86 | 1013.6 |
| 20260906050128 | 25 | 328 | 0.0 | 1.6 | 0.00 | 0.36 | 0.00 | 86 | 1013.5 |
| 20260906045612 | 26 | 5 | 0.0 | 4.8 | 0.00 | 0.36 | 0.36 | 86 | 1013.4 |
| 20260906045117 | 26 | 5 | 1.6 | 4.8 | 0.00 | 0.36 | 0.36 | 85 | 1013.2 |
| 20260906044618 | 26 | 200 | 1.6 | 6.4 | 0.00 | 0.36 | 0.36 | 85 | 1013.2 |
| 20260906044141 | 26 | 214 | 3.2 | 6.4 | 0.00 | 0.36 | 0.36 | 85 | 1013.2 |
| 20260906043622 | 25 | 190 | 3.2 | 6.4 | 0.00 | 0.36 | 0.36 | 86 | 1013.3 |
| 20260906043115 | 25 | 209 | 3.2 | 8.0 | 0.00 | 0.36 | 0.36 | 86 | 1013.2 |
| 20260906042637 | 25 | 247 | 3.2 | 8.0 | 0.00 | 0.36 | 0.36 | 86 | 1013.3 |
| 20260906042121 | 25 | 192 | 3.2 | 8.0 | 0.00 | 0.36 | 0.36 | 87 | 1013.3 |
| 20260906041624 | 25 | 273 | 3.2 | 11.3 | 0.00 | 0.36 | 0.36 | 87 | 1013.3 |
| 20260906041125 | 25 | 261 | 3.2 | 11.3 | 0.00 | 0.36 | 0.36 | 87 | 1013.2 |
| 20260906040626 | 25 | 223 | 4.8 | 11.3 | 0.00 | 0.36 | 0.36 | 87 | 1013.3 |
| 20260906040152 | 25 | 270 | 3.2 | 8.0 | 0.00 | 0.36 | 0.36 | 87 | 1013.3 |
| 20260906035630 | 25 | 271 | 4.8 | 11.3 | 0.00 | 0.36 | 0.36 | 87 | 1013.0 |
| 20260906035113 | 25 | 275 | 4.8 | 11.3 | 0.00 | 0.36 | 0.36 | 87 | 1013.2 |
| 20260906034629 | 25 | 282 | 4.8 | 11.3 | 0.00 | 0.36 | 0.36 | 87 | 1013.2 |
| 20260906034131 | 25 | 294 | 4.8 | 11.3 | 0.00 | 0.36 | 0.36 | 86 | 1013.2 |
| 20260906033612 | 26 | 291 | 4.8 | 8.0 | 0.00 | 0.36 | 0.36 | 86 | 1013.3 |
| 20260906033114 | 26 | 273 | 4.8 | 9.7 | 0.00 | 0.36 | 0.36 | 86 | 1013.3 |
| 20260906032614 | 26 | 226 | 4.8 | 9.7 | 0.00 | 0.36 | 0.36 | 86 | 1013.2 |
| 20260906032117 | 26 | 271 | 4.8 | 8.0 | 0.00 | 0.36 | 0.36 | 85 | 1013.2 |
| 20260906031619 | 26 | 269 | 3.2 | 8.0 | 0.00 | 0.36 | 0.36 | 85 | 1013.2 |
| 20260906031121 | 26 | 263 | 4.8 | 8.0 | 0.00 | 0.36 | 0.36 | 85 | 1013.2 |
| 20260906030623 | 26 | 286 | 4.8 | 8.0 | 0.00 | 0.36 | 0.36 | 84 | 1013.2 |
| 20260906030124 | 26 | 282 | 3.2 | 6.4 | 0.00 | 0.36 | 0.36 | 84 | 1013.2 |
| 20260906025612 | 26 | 296 | 3.2 | 11.3 | 0.00 | 0.36 | 0.36 | 83 | 1013.2 |
| 20260906025133 | 26 | 245 | 3.2 | 11.3 | 0.00 | 0.36 | 0.36 | 83 | 1013.3 |
| 20260906024613 | 26 | 229 | 3.2 | 6.4 | 0.00 | 0.36 | 0.36 | 83 | 1013.1 |
| 20260906024113 | 26 | 227 | 3.2 | 6.4 | 0.00 | 0.36 | 0.36 | 83 | 1013.1 |
| 20260906023631 | 26 | 239 | 1.6 | 9.7 | 0.00 | 0.36 | 0.36 | 83 | 1013.2 |
| 20260906023117 | 26 | 270 | 3.2 | 11.3 | 0.00 | 0.36 | 0.36 | 82 | 1013.1 |
| 20260906022630 | 26 | 245 | 3.2 | 11.3 | 0.00 | 0.36 | 0.36 | 82 | 1013.1 |
| 20260906022114 | 26 | 200 | 4.8 | 8.0 | 0.00 | 0.36 | 0.36 | 82 | 1013.0 |
| 20260906021616 | 27 | 182 | 3.2 | 6.4 | 0.00 | 0.36 | 0.36 | 81 | 1013.1 |
| 20260906021118 | 27 | 214 | 1.6 | 4.8 | 0.00 | 0.36 | 0.36 | 81 | 1013.1 |
| 20260906020620 | 27 | 252 | 1.6 | 3.2 | 0.00 | 0.36 | 0.36 | 80 | 1013.1 |
| 20260906020120 | 27 | 270 | 1.6 | 6.4 | 0.00 | 0.36 | 0.36 | 80 | 1013.1 |
| 20260906015620 | 27 | 219 | 3.2 | 6.4 | 0.00 | 0.36 | 0.36 | 80 | 1013.1 |
| 20260906015123 | 27 | 218 | 3.2 | 8.0 | 0.00 | 0.36 | 0.36 | 80 | 1012.7 |
| 20260906014642 | 27 | 263 | 1.6 | 8.0 | 0.00 | 0.36 | 0.36 | 80 | 1012.4 |
| 20260906014122 | 27 | 213 | 3.2 | 6.4 | 0.00 | 0.36 | 0.36 | 80 | 1012.5 |
| 20260906013624 | 27 | 200 | 1.6 | 9.7 | 0.00 | 0.36 | 0.36 | 81 | 1012.4 |
| 20260906013124 | 27 | 226 | 3.2 | 9.7 | 0.00 | 0.36 | 0.36 | 81 | 1012.2 |
| 20260906012620 | 27 | 232 | 3.2 | 6.4 | 0.00 | 0.36 | 0.36 | 81 | 1012.2 |
| 20260906012121 | 27 | 207 | 1.6 | 6.4 | 0.00 | 0.36 | 0.36 | 82 | 1012.1 |
| 20260906011622 | 27 | 244 | 1.6 | 8.0 | 0.00 | 0.36 | 0.36 | 82 | 1012.0 |
| 20260906011123 | 27 | 246 | 3.2 | 12.9 | 0.00 | 0.36 | 0.36 | 81 | 1011.9 |
| 20260906010624 | 27 | 237 | 4.8 | 12.9 | 0.00 | 0.36 | 0.36 | 81 | 1011.9 |
| 20260906010127 | 27 | 196 | 4.8 | 11.3 | 0.00 | 0.36 | 0.36 | 81 | 1011.8 |
| 20260906005650 | 27 | 248 | 3.2 | 8.0 | 0.00 | 0.36 | 0.36 | 82 | 1011.8 |
| 20260906005130 | 27 | 236 | 3.2 | 11.3 | 0.00 | 0.36 | 0.36 | 82 | 1011.8 |
| 20260906004626 | 27 | 238 | 3.2 | 11.3 | 0.00 | 0.36 | 0.36 | 82 | 1011.8 |
| 20260906004146 | 27 | 243 | 3.2 | 9.7 | 0.00 | 0.36 | 0.36 | 82 | 1011.9 |
| 20260906003623 | 27 | 209 | 3.2 | 9.7 | 0.00 | 0.36 | 0.36 | 82 | 1011.9 |
| 20260906003124 | 27 | 219 | 3.2 | 11.3 | 0.00 | 0.36 | 0.36 | 82 | 1011.8 |
| 20260906002650 | 27 | 244 | 3.2 | 11.3 | 0.00 | 0.36 | 0.36 | 82 | 1012.0 |
| 20260906002128 | 27 | 229 | 3.2 | 8.0 | 0.00 | 0.36 | 0.36 | 82 | 1011.9 |
| 20260906001626 | 28 | 140 | 3.2 | 8.0 | 0.00 | 0.36 | 0.36 | 81 | 1011.9 |
| 20260906001148 | 28 | 182 | 4.8 | 8.0 | 0.00 | 0.36 | 0.36 | 81 | 1012.0 |
| 20260906000630 | 28 | 190 | 3.2 | 8.0 | 0.00 | 0.36 | 0.36 | 80 | 1011.9 |
| 20260906000135 | 28 | 217 | 4.8 | 9.7 | 0.00 | 0.36 | 0.36 | 80 | 1012.1 |
| 20260905235618 | 28 | 161 | 4.8 | 16.1 | 0.00 | 0.36 | 0.36 | 79 | 1012.0 |
| 20260905235116 | 29 | 229 | 6.4 | 16.1 | 0.00 | 0.36 | 0.36 | 79 | 1012.1 |
| 20260905234618 | 29 | 208 | 3.2 | 11.3 | 0.00 | 0.36 | 0.36 | 78 | 1012.2 |
| 20260905234120 | 29 | 214 | 3.2 | 11.3 | 0.00 | 0.36 | 0.36 | 78 | 1012.1 |
| 20260905233620 | 30 | 163 | 6.4 | 12.9 | 0.00 | 0.36 | 0.36 | 78 | 1012.2 |
| 20260905233121 | 30 | 194 | 6.4 | 12.9 | 0.00 | 0.36 | 0.36 | 78 | 1012.2 |
| 20260905232623 | 30 | 219 | 4.8 | 9.7 | 0.00 | 0.36 | 0.36 | 78 | 1012.1 |
| 20260905232123 | 30 | 208 | 3.2 | 12.9 | 0.00 | 0.36 | 0.36 | 78 | 1012.1 |
| 20260905231624 | 30 | 191 | 4.8 | 12.9 | 0.00 | 0.36 | 0.36 | 78 | 1012.0 |
| 20260905231122 | 30 | 180 | 6.4 | 17.7 | 0.00 | 0.36 | 0.36 | 77 | 1011.9 |
| 20260905230642 | 30 | 214 | 6.4 | 17.7 | 0.00 | 0.36 | 0.36 | 77 | 1011.9 |
| 20260905230145 | 30 | 221 | 4.8 | 12.9 | 0.00 | 0.36 | 0.36 | 77 | 1012.0 |
| 20260905225620 | 30 | 212 | 4.8 | 11.3 | 0.00 | 0.36 | 0.36 | 77 | 1012.0 |
| 20260905225117 | 30 | 209 | 4.8 | 11.3 | 0.00 | 0.36 | 0.36 | 76 | 1011.8 |
| 20260905224640 | 30 | 196 | 6.4 | 14.5 | 0.00 | 0.36 | 0.36 | 76 | 1011.8 |
| 20260905224120 | 30 | 207 | 4.8 | 14.5 | 0.03 | 0.36 | 0.36 | 75 | 1011.6 |
| 20260905223620 | 30 | 236 | 4.8 | 11.3 | 0.25 | 0.36 | 0.36 | 75 | 1011.7 |
| 20260905223141 | 30 | 203 | 4.8 | 14.5 | 0.36 | 0.36 | 0.36 | 75 | 1011.8 |
| 20260905222625 | 31 | 194 | 8.0 | 14.5 | 0.36 | 0.36 | 0.36 | 75 | 1011.6 |
| 20260905222151 | 30 | 259 | 4.8 | 14.5 | 0.36 | 0.36 | 0.36 | 78 | 1011.8 |
| 20260905221611 | 30 | 221 | 3.2 | 11.3 | 0.36 | 0.36 | 0.36 | 79 | 1011.8 |
| 20260905221112 | 30 | 219 | 3.2 | 11.3 | 0.36 | 0.36 | 0.36 | 82 | 1011.8 |
| 20260905220620 | 30 | 187 | 4.8 | 11.3 | 0.36 | 0.36 | 0.36 | 83 | 1011.7 |
| 20260905220117 | 30 | 157 | 6.4 | 11.3 | 0.36 | 0.36 | 0.36 | 83 | 1011.7 |
| 20260905215640 | 30 | 166 | 6.4 | 14.5 | 0.36 | 0.36 | 0.36 | 83 | 1011.7 |
| 20260905215138 | 30 | 147 | 6.4 | 16.1 | 0.36 | 0.36 | 0.36 | 80 | 1011.6 |
| 20260905214617 | 30 | 183 | 11.3 | 20.9 | 0.36 | 0.36 | 0.36 | 76 | 1011.6 |
| 20260905214119 | 32 | 190 | 14.5 | 20.9 | 0.33 | 0.33 | 0.33 | 72 | 1011.8 |
| 20260905213644 | 33 | 140 | 12.9 | 19.3 | 0.05 | 0.05 | 0.05 | 69 | 1012.0 |
| 20260905213124 | 33 | 159 | 9.7 | 24.1 | 0.00 | 0.00 | 0.00 | 64 | 1011.7 |
| 20260905212643 | 34 | 173 | 16.1 | 25.7 | 0.00 | 0.00 | 0.00 | 63 | 1011.7 |
| 20260905212125 | 34 | 153 | 14.5 | 22.5 | 0.00 | 0.00 | 0.00 | 63 | 1012.0 |
| 20260905211646 | 34 | 202 | 14.5 | 17.7 | 0.00 | 0.00 | 0.00 | 61 | 1011.8 |
| 20260905211125 | 35 | 172 | 8.0 | 16.1 | 0.00 | 0.00 | 0.00 | 59 | 1011.8 |
| 20260905210626 | 35 | 175 | 9.7 | 12.9 | 0.00 | 0.00 | 0.00 | 58 | 1011.8 |
| 20260905210124 | 35 | 157 | 4.8 | 11.3 | 0.00 | 0.00 | 0.00 | 59 | 1011.9 |
| 20260905205648 | 35 | 145 | 8.0 | 12.9 | 0.00 | 0.00 | 0.00 | 58 | 1011.8 |
| 20260905205150 | 35 | 148 | 4.8 | 19.3 | 0.00 | 0.00 | 0.00 | 58 | 1011.8 |
| 20260905204616 | 35 | 149 | 4.8 | 19.3 | 0.00 | 0.00 | 0.00 | 61 | 1012.0 |
| 20260905204117 | 35 | 141 | 6.4 | 11.3 | 0.00 | 0.00 | 0.00 | 61 | 1012.0 |
| 20260905203619 | 35 | 198 | 6.4 | 11.3 | 0.00 | 0.00 | 0.00 | 57 | 1012.0 |
| 20260905203122 | 35 | 147 | 1.6 | 8.0 | 0.00 | 0.00 | 0.00 | 58 | 1012.0 |
| 20260905202644 | 35 | 184 | 4.8 | 11.3 | 0.00 | 0.00 | 0.00 | 58 | 1012.1 |
| 20260905202125 | 35 | 111 | 3.2 | 11.3 | 0.00 | 0.00 | 0.00 | 56 | 1012.2 |
| 20260905201625 | 36 | 160 | 4.8 | 12.9 | 0.00 | 0.00 | 0.00 | 55 | 1012.3 |
| 20260905201125 | 36 | 155 | 6.4 | 12.9 | 0.00 | 0.00 | 0.00 | 55 | 1012.3 |
| 20260905200627 | 36 | 156 | 4.8 | 11.3 | 0.00 | 0.00 | 0.00 | 57 | 1012.2 |
| 20260905200114 | 36 | 5 | 3.2 | 11.3 | 0.00 | 0.00 | 0.00 | 59 | 1012.2 |
| 20260905195611 | 36 | 105 | 1.6 | 11.3 | 0.00 | 0.00 | 0.00 | 57 | 1012.2 |
| 20260905195117 | 36 | 186 | 4.8 | 11.3 | 0.00 | 0.00 | 0.00 | 58 | 1012.2 |
| 20260905194619 | 35 | 59 | 0.0 | 11.3 | 0.00 | 0.00 | 0.00 | 60 | 1012.2 |
| 20260905194118 | 35 | 193 | 4.8 | 14.5 | 0.00 | 0.00 | 0.00 | 58 | 1012.3 |
| 20260905193619 | 35 | 155 | 3.2 | 14.5 | 0.00 | 0.00 | 0.00 | 58 | 1012.3 |
| 20260905193121 | 35 | 330 | 6.4 | 14.5 | 0.00 | 0.00 | 0.00 | 59 | 1012.2 |
| 20260905192622 | 35 | 266 | 1.6 | 14.5 | 0.00 | 0.00 | 0.00 | 59 | 1012.4 |
| 20260905192122 | 35 | 335 | 4.8 | 14.5 | 0.00 | 0.00 | 0.00 | 60 | 1012.5 |
| 20260905191621 | 35 | 264 | 6.4 | 12.9 | 0.00 | 0.00 | 0.00 | 61 | 1012.6 |
| 20260905191120 | 35 | 150 | 8.0 | 16.1 | 0.00 | 0.00 | 0.00 | 62 | 1012.7 |
| 20260905190642 | 35 | 153 | 14.5 | 16.1 | 0.00 | 0.00 | 0.00 | 59 | 1012.7 |
| 20260905190124 | 35 | 207 | 3.2 | 12.9 | 0.00 | 0.00 | 0.00 | 59 | 1012.9 |
| 20260905185626 | 36 | 259 | 3.2 | 20.9 | 0.00 | 0.00 | 0.00 | 58 | 1013.0 |
| 20260905185129 | 36 | 259 | 8.0 | 20.9 | 0.00 | 0.00 | 0.00 | 57 | 1012.9 |
| 20260905184629 | 37 | 186 | 3.2 | 11.3 | 0.00 | 0.00 | 0.00 | 54 | 1013.0 |
| 20260905184130 | 37 | 147 | 6.4 | 16.1 | 0.00 | 0.00 | 0.00 | 48 | 1013.1 |
| 20260905183630 | 37 | 21 | 4.8 | 19.3 | 0.00 | 0.00 | 0.00 | 48 | 1013.2 |
| 20260905183118 | 37 | 24 | 12.9 | 19.3 | 0.00 | 0.00 | 0.00 | 47 | 1013.2 |
| 20260905182618 | 36 | 5 | 6.4 | 14.5 | 0.00 | 0.00 | 0.00 | 49 | 1013.3 |
| 20260905182120 | 36 | 59 | 4.8 | 11.3 | 0.00 | 0.00 | 0.00 | 53 | 1013.5 |
| 20260905181622 | 36 | 39 | 3.2 | 17.7 | 0.00 | 0.00 | 0.00 | 51 | 1013.7 |
| 20260905181138 | 36 | 70 | 3.2 | 17.7 | 0.00 | 0.00 | 0.00 | 49 | 1013.7 |
| 20260905180619 | 37 | 346 | 8.0 | 17.7 | 0.00 | 0.00 | 0.00 | 47 | 1013.8 |
| 20260905180140 | 37 | 94 | 8.0 | 17.7 | 0.00 | 0.00 | 0.00 | 49 | 1013.8 |
| 20260905175640 | 37 | 44 | 3.2 | 14.5 | 0.00 | 0.00 | 0.00 | 48 | 1013.8 |
| 20260905175120 | 37 | 57 | 6.4 | 14.5 | 0.00 | 0.00 | 0.00 | 48 | 1013.9 |
| 20260905174621 | 36 | 33 | 4.8 | 16.1 | 0.00 | 0.00 | 0.00 | 49 | 1013.9 |
| 20260905174122 | 36 | 66 | 8.0 | 16.1 | 0.00 | 0.00 | 0.00 | 51 | 1014.0 |
| 20260905173622 | 36 | 19 | 4.8 | 12.9 | 0.00 | 0.00 | 0.00 | 52 | 1014.0 |
| 20260905173123 | 35 | 38 | 6.4 | 12.9 | 0.00 | 0.00 | 0.00 | 55 | 1014.1 |
| 20260905172625 | 35 | 22 | 1.6 | 11.3 | 0.00 | 0.00 | 0.00 | 55 | 1014.2 |
| 20260905172140 | 35 | 81 | 4.8 | 12.9 | 0.00 | 0.00 | 0.00 | 55 | 1014.3 |
| 20260905171644 | 35 | 136 | 1.6 | 9.7 | 0.00 | 0.00 | 0.00 | 59 | 1014.4 |
| 20260905171125 | 34 | 327 | 6.4 | 9.7 | 0.00 | 0.00 | 0.00 | 58 | 1014.3 |
| 20260905170627 | 34 | 22 | 4.8 | 8.0 | 0.00 | 0.00 | 0.00 | 59 | 1014.5 |
| 20260905170111 | 33 | 290 | 4.8 | 8.0 | 0.00 | 0.00 | 0.00 | 60 | 1014.5 |
| 20260905165613 | 33 | 26 | 3.2 | 8.0 | 0.00 | 0.00 | 0.00 | 61 | 1014.7 |
| 20260905165112 | 33 | 11 | 4.8 | 12.9 | 0.00 | 0.00 | 0.00 | 61 | 1014.6 |
| 20260905164618 | 33 | 346 | 3.2 | 12.9 | 0.00 | 0.00 | 0.00 | 60 | 1014.6 |
| 20260905164118 | 33 | 355 | 6.4 | 12.9 | 0.00 | 0.00 | 0.00 | 62 | 1014.7 |
| 20260905163621 | 33 | 322 | 3.2 | 6.4 | 0.00 | 0.00 | 0.00 | 61 | 1014.7 |
| 20260905163146 | 33 | 5 | 3.2 | 6.4 | 0.00 | 0.00 | 0.00 | 61 | 1014.7 |
| 20260905162621 | 33 | 23 | 1.6 | 12.9 | 0.00 | 0.00 | 0.00 | 61 | 1014.8 |
| 20260905162122 | 33 | 73 | 4.8 | 19.3 | 0.00 | 0.00 | 0.00 | 61 | 1014.9 |
| 20260905161627 | 33 | 270 | 11.3 | 19.3 | 0.00 | 0.00 | 0.00 | 61 | 1015.0 |
| 20260905161127 | 33 | 5 | 8.0 | 16.1 | 0.00 | 0.00 | 0.00 | 61 | 1015.0 |
| 20260905160628 | 33 | 15 | 6.4 | 16.1 | 0.00 | 0.00 | 0.00 | 61 | 1015.0 |
| 20260905160114 | 33 | 336 | 8.0 | 16.1 | 0.00 | 0.00 | 0.00 | 63 | 1015.1 |
| 20260905155616 | 32 | 5 | 6.4 | 16.1 | 0.00 | 0.00 | 0.00 | 64 | 1015.0 |
| 20260905155119 | 32 | 341 | 6.4 | 16.1 | 0.00 | 0.00 | 0.00 | 66 | 1014.9 |
| 20260905154620 | 32 | 332 | 4.8 | 19.3 | 0.00 | 0.00 | 0.00 | 65 | 1014.9 |
| 20260905154122 | 31 | 21 | 9.7 | 16.1 | 0.00 | 0.00 | 0.00 | 66 | 1014.9 |
| 20260905153622 | 31 | 35 | 11.3 | 19.3 | 0.00 | 0.00 | 0.00 | 67 | 1014.9 |
| 20260905153121 | 31 | 19 | 11.3 | 19.3 | 0.00 | 0.00 | 0.00 | 69 | 1014.8 |
| 20260905152622 | 30 | 360 | 4.8 | 12.9 | 0.00 | 0.00 | 0.00 | 71 | 1014.7 |
| 20260905152143 | 30 | 19 | 6.4 | 14.5 | 0.00 | 0.00 | 0.00 | 71 | 1014.7 |
| 20260905151646 | 30 | 348 | 8.0 | 17.7 | 0.00 | 0.00 | 0.00 | 73 | 1014.7 |
| 20260905151126 | 30 | 330 | 6.4 | 17.7 | 0.00 | 0.00 | 0.00 | 74 | 1014.8 |
| 20260905150627 | 29 | 355 | 6.4 | 17.7 | 0.00 | 0.00 | 0.00 | 73 | 1014.8 |
| 20260905150130 | 29 | 317 | 4.8 | 17.7 | 0.00 | 0.00 | 0.00 | 74 | 1014.8 |
| 20260905145615 | 29 | 344 | 11.3 | 19.3 | 0.00 | 0.00 | 0.00 | 74 | 1014.9 |
| 20260905145116 | 29 | 333 | 12.9 | 17.7 | 0.00 | 0.00 | 0.00 | 75 | 1014.8 |
| 20260905144618 | 28 | 323 | 12.9 | 19.3 | 0.00 | 0.00 | 0.00 | 75 | 1014.9 |
| 20260905144120 | 28 | 349 | 12.9 | 19.3 | 0.00 | 0.00 | 0.00 | 75 | 1014.9 |
| 20260905143641 | 28 | 355 | 9.7 | 16.1 | 0.00 | 0.00 | 0.00 | 76 | 1015.0 |
| 20260905143118 | 28 | 21 | 9.7 | 16.1 | 0.00 | 0.00 | 0.00 | 79 | 1014.9 |
| 20260905142621 | 28 | 360 | 8.0 | 16.1 | 0.00 | 0.00 | 0.00 | 80 | 1015.1 |
| 20260905142122 | 28 | 319 | 9.7 | 19.3 | 0.00 | 0.00 | 0.00 | 81 | 1015.0 |
| 20260905141625 | 27 | 323 | 11.3 | 19.3 | 0.00 | 0.00 | 0.00 | 81 | 1015.0 |
| 20260905141125 | 27 | 337 | 6.4 | 9.7 | 0.00 | 0.00 | 0.00 | 83 | 1015.1 |
| 20260905140627 | 27 | 351 | 4.8 | 12.9 | 0.00 | 0.00 | 0.00 | 84 | 1015.1 |
| 20260905140130 | 27 | 313 | 4.8 | 12.9 | 0.00 | 0.00 | 0.00 | 85 | 1015.1 |
| 20260905135618 | 26 | 347 | 6.4 | 14.5 | 0.00 | 0.00 | 0.00 | 85 | 1015.0 |
| 20260905135120 | 26 | 347 | 6.4 | 16.1 | 0.00 | 0.00 | 0.00 | 86 | 1015.1 |
| 20260905134621 | 26 | 342 | 6.4 | 16.1 | 0.00 | 0.00 | 0.00 | 86 | 1015.1 |
| 20260905134123 | 26 | 335 | 6.4 | 9.7 | 0.00 | 0.00 | 0.00 | 87 | 1015.0 |
| 20260905133623 | 26 | 16 | 4.8 | 9.7 | 0.00 | 0.00 | 0.00 | 88 | 1015.0 |
| 20260905133125 | 25 | 355 | 4.8 | 8.0 | 0.00 | 0.00 | 0.00 | 88 | 1015.0 |
| 20260905132626 | 25 | 13 | 4.8 | 9.7 | 0.00 | 0.00 | 0.00 | 89 | 1015.0 |
| 20260905132125 | 25 | 340 | 4.8 | 12.9 | 0.00 | 0.00 | 0.00 | 89 | 1014.9 |
| 20260905131626 | 25 | 344 | 6.4 | 12.9 | 0.00 | 0.00 | 0.00 | 90 | 1015.0 |
| 20260905131127 | 25 | 329 | 6.4 | 14.5 | 0.00 | 0.00 | 0.00 | 90 | 1015.1 |
| 20260905130615 | 25 | 336 | 8.0 | 14.5 | 0.00 | 0.00 | 0.00 | 90 | 1015.0 |
| 20260905130117 | 25 | 334 | 6.4 | 14.5 | 0.00 | 0.00 | 0.00 | 90 | 1015.2 |
| 20260905125616 | 25 | 337 | 6.4 | 14.5 | 0.00 | 0.00 | 0.00 | 90 | 1015.3 |
| 20260905125137 | 25 | 325 | 8.0 | 12.9 | 0.00 | 0.00 | 0.00 | 90 | 1015.2 |
| 20260905124635 | 24 | 337 | 8.0 | 14.5 | 0.00 | 0.00 | 0.00 | 91 | 1015.2 |
| 20260905124138 | 24 | 341 | 8.0 | 14.5 | 0.00 | 0.00 | 0.00 | 91 | 1015.1 |
| 20260905123613 | 24 | 340 | 8.0 | 14.5 | 0.00 | 0.00 | 0.00 | 91 | 1015.0 |
| 20260905123116 | 24 | 331 | 8.0 | 14.5 | 0.00 | 0.00 | 0.00 | 91 | 1014.9 |
| 20260905122617 | 24 | 325 | 9.7 | 14.5 | 0.00 | 0.00 | 0.00 | 92 | 1015.0 |
| 20260905122117 | 23 | 331 | 9.7 | 14.5 | 0.00 | 0.00 | 0.00 | 91 | 1015.1 |
| 20260905121617 | 23 | 321 | 8.0 | 14.5 | 0.00 | 0.00 | 0.00 | 92 | 1015.0 |
| 20260905121118 | 23 | 336 | 9.7 | 14.5 | 0.00 | 0.00 | 0.00 | 92 | 1014.9 |
| 20260905120638 | 23 | 335 | 9.7 | 14.5 | 0.00 | 0.00 | 0.00 | 92 | 1014.8 |
| 20260905120118 | 23 | 323 | 9.7 | 16.1 | 0.00 | 0.00 | 0.00 | 92 | 1014.8 |